Overview Statistics Trail Chart Weather Telemetry Raw packets
 

This is the latest recevied weather packets stored in our database for station/object W5ALL-WX. If no packets are shown the sender has not sent any weather packets the latest 10 day(s).

<< 102 103 104 105 106 107 >>
Time Temp. Humidity Pressure Rain* Wind** Luminosity Snow
1777208409 18.89° C 26% 1010.6 hPa 0 mm - - -
1777208109 18.89° C 26% 1010.4 hPa 0 mm - - -
1777207809 18.33° C 26% 1010.5 hPa 0 mm - - -
1777207509 18.89° C 26% 1010.4 hPa 0 mm - - -
1777207209 18.33° C 25% 1010.5 hPa 0 mm - - -
1777206909 18.33° C 26% 1010.5 hPa 0 mm - - -
1777206609 18.33° C 25% 1010.5 hPa 0 mm - - -
1777206308 18.33° C 25% 1010.4 hPa 0 mm - - -
1777206009 18.33° C 25% 1010.4 hPa 0 mm - - -
1777205708 18.33° C 24% 1010.1 hPa 0 mm - - -
1777205408 18.33° C 24% 1010.1 hPa 0 mm - - -
1777205108 18.33° C 24% 1010.3 hPa 0 mm - - -
1777204809 18.33° C 25% 1010.3 hPa 0 mm - - -
1777204509 18.33° C 24% 1010.1 hPa 0 mm - - -
1777204208 18.33° C 24% 1010.1 hPa 0 mm - - -
1777203908 17.78° C 25% 1010.3 hPa 0 mm - - -
1777203608 17.22° C 26% 1010.1 hPa 0 mm - - -
1777203308 15.56° C 30% 1010.1 hPa 0 mm - - -
1777203008 15° C 32% 1010.1 hPa 0 mm - - -
1777202708 15° C 31% 1010.1 hPa 0 mm - - -
1777202408 15° C 31% 1010.1 hPa 0 mm - - -
1777202108 14.44° C 32% 1010 hPa 0 mm - - -
1777201808 14.44° C 32% 1010.1 hPa 0 mm - - -
1777201508 14.44° C 33% 1010.3 hPa 0 mm - - -
1777201208 13.89° C 33% 1010.1 hPa 0 mm - - -

* Rain latest hour (hover to see other rain measurements)
** Current wind speed in m/s (hover to see current wind gust speed)